Location: Rogalle
(42.8890°N, 1.1916°E)
Time: 07:40:32
(UTC+00:00)

Cosmos 2322 Rocket - Pass Details

Date: 13 December 2025
Orbit: 831 x 851 km, 71.0° (Epoch: 13 January)

Event Time Altitude Azimuth Distance (km) Brightness Sun altitude
Rises 18:34:53 0° 173° (S) 3,388 5.4 -23.6°
Reaches altitude 10° 18:37:34 10° 163° (SSE) 2,461 4.5 -24.1°
Enters shadow 18:39:09 18° 153° (SSE) 1,979 3.9 -24.4°
